Location: Unspecified
(44.0704°N, 88.6889°W)
Time: 01:54:22
(UTC+02:00)

S-56A Canister/Altair - All Passes

Search period start: 27 June 2019 00:00
Search period end: 07 July 2019 00:00
Orbit: 633 x 2499 km, 38.9° (Epoch: 25 June)

Date Brightness Start Highest point End Pass type
(mag) Time Alt. Az. Time Alt. Az. Time Alt. Az.
27 Jun - 01:26:27 10° W 01:34:59 55° S 01:40:40 10° ESE daylight
27 Jun - 03:32:47 10° W 03:38:02 25° SSW 03:42:10 10° SSE daylight
27 Jun - 18:44:14 10° SSE 18:48:42 12° SE 18:52:48 10° ESE daylight
27 Jun - 20:41:58 10° SSW 20:53:10 34° SSE 21:01:30 10° E daylight
27 Jun - 22:46:33 10° WSW 22:57:54 56° SSE 23:05:26 10° E daylight
28 Jun - 00:52:57 10° W 01:02:16 59° S 01:08:23 10° ESE daylight
28 Jun - 02:59:23 10° W 03:05:33 30° SSW 03:10:09 10° SSE daylight
28 Jun - 18:13:30 10° SE 18:15:38 10° SE 18:17:42 10° SE daylight
28 Jun - 20:08:45 10° SSW 20:20:03 32° SSE 20:28:44 10° E daylight
28 Jun - 22:12:57 10° WSW 22:24:54 55° SSE 22:32:57 10° E daylight
29 Jun - 00:19:22 10° W 00:29:28 61° S 00:36:03 10° ESE daylight
29 Jun - 02:25:57 10° W 02:33:02 35° SSW 02:38:06 10° SE daylight
29 Jun - 19:35:36 10° SSW 19:46:55 30° SSE 19:55:52 10° E daylight
29 Jun - 21:39:21 10° SW 21:51:50 53° SSE 22:00:25 10° E daylight
29 Jun - 23:45:44 10° W 23:56:37 63° S 00:03:42 10° ESE daylight
30 Jun - 01:52:27 10° W 02:00:27 40° SSW 02:05:58 10° SE daylight
30 Jun - 04:01:32 10° WSW 04:02:44 11° SW 04:03:52 10° SW daylight
30 Jun - 19:02:34 10° SSW 19:13:44 28° SE 19:22:53 10° E daylight
30 Jun - 21:05:46 10° SW 21:18:43 52° SSE 21:27:50 10° E daylight
30 Jun - 23:12:03 10° WSW 23:23:41 65° S 23:31:17 10° E daylight
01 Jul - 01:18:54 10° W 01:27:49 46° SSW 01:33:48 10° SE daylight
01 Jul - 03:26:47 10° WSW 03:30:19 14° SW 03:33:19 10° SSW daylight
01 Jul - 18:29:40 10° S 18:40:33 26° SE 18:49:46 10° E daylight
01 Jul - 20:32:14 10° SW 20:45:31 50° SSE 20:55:10 10° E daylight
01 Jul - 22:38:19 10° WSW 22:50:40 66° S 22:58:50 10° E daylight
02 Jul - 00:45:17 10° W 00:55:04 51° SSW 01:01:33 10° SE daylight
02 Jul - 02:52:48 10° W 02:57:51 19° SW 03:01:53 10° S daylight
02 Jul - 17:56:55 10° S 18:07:21 23° SE 18:16:30 10° E daylight
02 Jul - 19:58:46 10° SW 20:12:17 48° SSE 20:22:27 10° E daylight
02 Jul - 22:04:36 10° WSW 22:17:35 66° S 22:26:20 10° E daylight
03 Jul - 00:11:37 10° W 00:22:17 56° SSW 00:29:16 10° ESE daylight
03 Jul - 02:19:00 10° W 02:25:21 23° SW 02:30:11 10° S daylight
03 Jul - 17:24:22 10° S 17:34:09 21° SE 17:43:03 10° E daylight
03 Jul - 19:25:23 10° SW 19:38:59 46° SSE 19:49:38 10° E daylight
03 Jul - 21:30:52 10° WSW 21:44:25 65° S 21:53:46 10° E daylight
03 Jul - 23:37:54 10° W 23:49:23 60° SSW 23:56:56 10° ESE daylight
04 Jul - 01:45:14 10° W 01:52:48 28° SW 01:58:19 10° SSE daylight
04 Jul - 16:52:02 10° S 17:00:59 19° SE 17:09:20 10° E daylight
04 Jul - 18:52:05 10° SW 19:05:40 43° SSE 19:16:44 10° E daylight
04 Jul - 20:57:10 10° WSW 21:11:10 65° S 21:21:09 10° E daylight
04 Jul - 23:04:08 10° W 23:16:24 63° SSW 23:24:32 10° ESE daylight
05 Jul - 01:11:28 10° W 01:20:11 33° SW 01:26:20 10° SSE daylight
05 Jul - 16:20:01 10° SSE 16:27:49 16° SE 16:35:20 10° E daylight
05 Jul - 18:18:54 10° SSW 18:32:20 41° SSE 18:43:44 10° E daylight
05 Jul - 20:23:31 10° WSW 20:37:53 64° SSE 20:48:27 10° E daylight
05 Jul - 22:30:22 10° W 22:43:20 66° S 22:52:04 10° ESE daylight
06 Jul - 00:37:42 10° W 00:47:29 39° SSW 00:54:14 10° SSE daylight
06 Jul - 15:48:30 10° SSE 15:54:42 14° SE 16:00:50 10° ESE daylight
06 Jul - 17:45:49 10° SSW 17:58:58 38° SE 18:10:37 10° E daylight
06 Jul - 19:49:55 10° WSW 20:04:30 62° SSE 20:15:42 10° E daylight
06 Jul - 21:56:35 10° W 22:10:12 68° S 22:19:33 10° ESE daylight
